Aérodrome :
LOGIN :

S'inscrire | Disclaimer

   EN    FR    IT 

 










Légende :    VFR   VFR Marginal   IFR   IFR Intensif   IFR Très Intensif
Visi : 
Plafond : 
>= 8 km
>= 3000ft
5 à 8 km
1000 à 3000 ft
1500m à 5 km
500 à 1000 ft
800 à 1500m
200 à 500 ft
< 800m
< 200 ft
Symboles :   Orages  Brouillard  Fortes neiges  Fortes précipitations  Vent > 20 kt
SIGMETs :   Divers  Orages  Givrage  Turbulence  Onde Orograph.  Cendres Volcan.







- Altitude de l'aérodrome : 124 ft
- Code IATA : AVN
- Voir les cartes d'approche


LFMV - Avignon Caumont

DERNIER METAR :
  • 240830Z AUTO 32010KT CAVOK 21/15 Q1018 NOSIG

METARs EXPIRÉS :
  • 240800Z AUTO 33008KT CAVOK 20/14 Q1018 NOSIG
  • 240730Z AUTO 34008KT CAVOK 19/14 Q1018 NOSIG
  • 240700Z AUTO 34009KT 310V010 CAVOK 18/14 Q1018 NOSIG
  • 240630Z AUTO 34008KT CAVOK 16/14 Q1018 NOSIG
  • 240600Z AUTO 35003KT CAVOK 15/14 Q1018 NOSIG

TAF TAF LFMV
Valide du 24 à 09h jusqu'au 25 à 09h UTC


240800Z 2409/2509 33010KT CAVOK
BECMG 2414/2416 22010KT
BECMG 2420/2422 15005KT
BECMG 2502/2504 VRB03KT
ATIS : +33 4 90 84 32 84
Pas de NOTAMs connus pour ce terrain.



MET'MAP, la Météo Aéronautique d'un coup d'oeil ! - Copyright ORBIFLY Décembre 2007 - Disclaimer

ORBIFLY MET'MAP TEAM :

Programmation & Développement : Alexandra Zaïnal
Conception & Développement : Baudouin d'Aumeries
Co-Programmation & Développement : Marc-Olivier Méhu
Soutien technique & logistique : Manuel Goepfert

Contact : metmap@orbifly.com




SOURCES & CREDITS :

   NOAA